Leesburg, FL

12:28 PM EST on December 11, 2019 (GMT -0500)
Leesburg Regional

Weather History for KLEE - October, 2019

Change the Weather History Date:

Wednesday, October 2, 2019

  Actual Average Record
Temperature  
Mean Temperature 82 °F -  
Max Temperature 93 °F 86 °F 93 °F (1959)
Min Temperature 73 °F 66 °F 52 °F (1984)
Cooling Degree Days 17    
Growing Degree Days 32 (Base 50)    
Moisture  
Dew Point 70 °F    
Average Humidity 70    
Maximum Humidity 91    
Minimum Humidity 44    
Precipitation  
Precipitation 0.00 in - - ()
Sea Level Pressure  
Sea Level Pressure 29.97 in    
Wind  
Wind Speed 7 mph (NE)    
Max Wind Speed 15 mph    
Max Gust Speed 25 mph    
Visibility 10 miles    
Events      
Averages and records for this station are not official NWS values.
T = Trace of Precipitation, MM = Missing Value Source: NWS Daily Summary

Daily Weather History Graph

Daily Weather History Graph

Search for Another Location

Airport or City:

Astronomy

Oct. 02, 2019 Rise Set
Actual Time 7:20 AM EDT 7:12 PM EDT
Civil Twilight 6:57 AM EDT 7:35 PM EDT
Nautical Twilight 6:29 AM EDT 8:03 PM EDT
Astronomical Twilight 6:02 AM EDT 8:30 PM EDT
Moon 11:25 AM EDT (10/2) 10:25 PM EDT (10/2)
Length of Visible Light 12h 38m
Length of Day
11h 51m
Waxing Crescent, 20% of the Moon is Illuminated
Oct 2
Waxing Crescent
Oct 5
First Quarter
Oct 13
Full
Oct 21
Last Quarter
Oct 27
New

Hourly Weather History & Observations

Time (EDT) Temp. Heat Index Dew Point Humidity Pressure Visibility Wind Dir Wind Speed Gust Speed Precip Events Conditions
12:53 AM 75.0 °F - 71.1 °F 87% 29.99 in 10.0 mi NNE 4.6 mph - N/A   Clear
1:53 AM 73.9 °F - 71.1 °F 91% 29.98 in 10.0 mi NE 3.5 mph - N/A   Clear
2:53 AM 75.0 °F - 71.1 °F 87% 29.96 in 10.0 mi NNE 4.6 mph - N/A   Clear
3:53 AM 73.9 °F - 71.1 °F 91% 29.95 in 10.0 mi NNE 4.6 mph - N/A   Partly Cloudy
4:53 AM 73.9 °F - 70.0 °F 87% 29.95 in 10.0 mi NE 4.6 mph - N/A   Clear
5:53 AM 73.9 °F - 71.1 °F 91% 29.96 in 10.0 mi NNE 4.6 mph - N/A   Partly Cloudy
6:53 AM 73.9 °F - 70.0 °F 87% 29.98 in 10.0 mi North 4.6 mph - N/A   Clear
7:53 AM 73.9 °F - 71.1 °F 91% 30.00 in 10.0 mi NNE 5.8 mph - N/A   Clear
8:53 AM 79.0 °F - 72.0 °F 79% 30.00 in 10.0 mi NNE 5.8 mph - N/A   Clear
9:53 AM 84.0 °F 89.0 °F 71.1 °F 65% 30.01 in 10.0 mi ENE 11.5 mph - N/A   Clear
10:53 AM 86.0 °F 91.5 °F 71.1 °F 61% 30.01 in 10.0 mi ENE 12.7 mph 25.3 mph N/A   Clear
11:53 AM 88.0 °F 91.4 °F 68.0 °F 51% 30.00 in 10.0 mi ENE 12.7 mph - N/A   Partly Cloudy
12:53 PM 90.0 °F 94.5 °F 69.1 °F 50% 29.99 in 10.0 mi ENE 10.4 mph - N/A   Scattered Clouds
1:53 PM 91.9 °F 95.9 °F 68.0 °F 45% 29.97 in 10.0 mi ENE 15.0 mph 19.6 mph N/A   Clear
2:53 PM 91.9 °F 95.4 °F 66.9 °F 44% 29.94 in 10.0 mi East 11.5 mph 19.6 mph N/A   Clear
3:53 PM 91.9 °F 95.4 °F 66.9 °F 44% 29.94 in 10.0 mi NE 15.0 mph 20.7 mph N/A   Clear
4:53 PM 91.0 °F 93.8 °F 66.0 °F 44% 29.92 in 10.0 mi East 11.5 mph - N/A   Clear
5:53 PM 88.0 °F 90.3 °F 66.0 °F 48% 29.93 in 10.0 mi ENE 11.5 mph - N/A   Clear
6:53 PM 84.9 °F 87.6 °F 66.9 °F 55% 29.94 in 10.0 mi ENE 12.7 mph - N/A   Clear
7:53 PM 82.0 °F 85.5 °F 69.1 °F 65% 29.96 in 10.0 mi ENE 8.1 mph - N/A   Clear
8:53 PM 80.1 °F 83.2 °F 70.0 °F 71% 29.97 in 10.0 mi ENE 6.9 mph - N/A   Clear
9:53 PM 78.1 °F - 71.1 °F 79% 29.99 in 10.0 mi East 4.6 mph - N/A   Clear
10:53 PM 78.1 °F - 71.1 °F 79% 30.01 in 10.0 mi ENE 3.5 mph - N/A   Clear
11:53 PM 75.9 °F - 71.1 °F 85% 30.01 in 10.0 mi ENE 4.6 mph - N/A   Clear